EW4538 Weather Reports


time (UTC)temp
F
wind
direction
speed
knots
gust
knots
rain 1hr
in
rain 24hr
in
rain mn
in
humidity
%
barometer
mb
20260506191805 67 331 6.1 13.0 0.00 0.35 0.35 75 1012.0
20260506191305 67 345 6.1 13.9 0.00 0.35 0.35 75 1012.0
20260506190804 67 334 7.0 13.0 0.00 0.35 0.35 75 1012.1
20260506190304 68 331 6.1 13.9 0.00 0.35 0.35 75 1012.0
20260506184304 74 305 5.2 11.3 0.00 0.35 0.35 72 1011.8
20260506183804 75 296 1.7 11.3 0.00 0.35 0.35 72 1011.7
20260506183305 76 343 1.7 5.2 0.00 0.35 0.35 72 1011.6
20260506181804 77 306 4.3 5.2 0.00 0.35 0.35 70 1011.6
20260506181305 76 6 1.7 2.6 0.00 0.35 0.35 71 1011.5
20260506180805 76 15 1.7 7.0 0.00 0.35 0.35 74 1011.6
20260506180304 75 319 5.2 11.3 0.00 0.35 0.35 75 1011.6
20260506174805 73 336 2.6 8.7 0.00 0.35 0.35 78 1011.3
20260506173804 70 327 2.6 7.0 0.00 0.35 0.35 83 1011.2
20260506173305 70 92 2.6 7.0 0.00 0.35 0.35 85 1011.2
20260506171805 67 43 2.6 5.2 0.01 0.35 0.35 86 1011.3
20260506171304 66 141 2.6 7.8 0.04 0.35 0.35 86 1011.5
20260506170304 64 39 2.6 10.4 0.35 0.35 0.35 86 1011.4
20260506164805 64 128 1.7 10.4 0.35 0.35 0.35 86 1011.6
20260506164304 63 103 5.2 12.2 0.35 0.35 0.35 86 1011.3
20260506163804 62 61 5.2 10.4 0.35 0.35 0.35 85 1011.5
20260506163304 61 10 5.2 11.3 0.35 0.35 0.35 85 1011.6
20260506161804 60 345 1.7 7.8 0.34 0.34 0.34 83 1012.5
20260506160805 61 4 6.1 18.2 0.13 0.13 0.13 81 1012.1
20260506160304 61 16 7.8 24.3 0.00 0.00 0.00 80 1012.5
20260506154804 62 3 11.3 26.1 0.00 0.00 0.00 79 1012.2
20260506153805 63 28 10.4 22.6 0.00 0.00 0.00 79 1011.4
20260506153305 64 357 12.2 21.7 0.00 0.00 0.00 79 1011.6
20260506151804 66 13 9.6 17.4 0.00 0.00 0.00 79 1011.6
20260506151305 66 350 8.7 14.8 0.00 0.00 0.00 80 1011.5
20260506150305 66 344 10.4 18.2 0.00 0.00 0.00 79 1011.6
20260506144804 70 352 9.6 20.9 0.00 0.00 0.00 76 1010.7
20260506144304 73 354 7.8 12.2 0.00 0.00 0.00 75 1010.4
20260506143804 76 21 7.8 14.8 0.00 0.00 0.00 78 1010.2
20260506143305 76 150 0.9 10.4 0.00 0.00 0.00 80 1010.0
20260506141804 75 142 5.2 11.3 0.00 0.00 0.00 81 1009.6
20260506141305 75 118 6.1 12.2 0.00 0.00 0.00 81 1009.5
20260506140804 75 141 7.0 12.2 0.00 0.00 0.00 82 1009.4
20260506140304 75 157 4.3 11.3 0.00 0.00 0.00 82 1009.5
20260506134805 74 139 4.3 7.8 0.00 0.00 0.00 83 1009.8
20260506134305 74 116 4.3 7.8 0.00 0.00 0.00 83 1009.5
20260506133805 74 124 5.2 8.7 0.00 0.00 0.00 83 1009.2
20260506133305 74 153 2.6 10.4 0.00 0.00 0.00 83 1009.3
20260506131805 74 142 5.2 11.3 0.00 0.00 0.00 83 1009.2
20260506131304 74 137 5.2 11.3 0.00 0.00 0.00 84 1009.3
20260506130804 74 153 6.1 10.4 0.00 0.00 0.00 84 1009.0
20260506130304 74 150 5.2 10.4 0.00 0.00 0.00 84 1008.8
20260506123805 73 145 6.1 10.4 0.00 0.00 0.00 84 1008.6
20260506123305 73 147 6.1 10.4 0.00 0.00 0.00 84 1008.6
20260506121804 73 147 6.1 8.7 0.00 0.00 0.00 84 1008.4
20260506121306 73 157 3.5 7.0 0.00 0.00 0.00 84 1008.6
20260506120805 73 161 4.3 7.0 0.00 0.00 0.00 84 1008.7
20260506120305 73 157 2.6 5.2 0.00 0.00 0.00 84 1008.7
20260506114805 73 159 2.6 4.3 0.00 0.00 0.00 84 1008.6
20260506114304 73 159 0.9 5.2 0.00 0.00 0.00 84 1008.6
20260506113305 73 172 0.9 5.2 0.00 0.00 0.00 84 1008.7
20260506111804 73 172 0.0 0.0 0.00 0.00 0.00 83 1008.8
20260506111305 73 172 0.0 0.0 0.00 0.00 0.00 84 1008.8
20260506110805 73 172 0.0 0.0 0.00 0.00 0.00 84 1008.8
20260506110305 73 172 0.0 0.0 0.00 0.00 0.00 83 1008.8
20260506104804 73 172 0.0 0.0 0.00 0.00 0.00 83 1008.7
20260506104305 73 172 0.0 0.0 0.00 0.00 0.00 83 1008.7
20260506103304 73 172 0.0 2.6 0.00 0.00 0.00 83 1008.6
20260506101805 73 172 1.7 7.0 0.00 0.00 0.00 83 1008.4
20260506101304 74 186 1.7 2.6 0.00 0.00 0.00 83 1008.4
20260506100804 74 186 1.7 5.2 0.00 0.00 0.00 83 1008.3
20260506100304 74 185 4.3 8.7 0.00 0.00 0.00 83 1008.3
20260506094805 74 153 0.9 4.3 0.00 0.00 0.00 82 1008.2
20260506094304 74 163 4.3 7.0 0.00 0.00 0.00 82 1008.0
20260506093804 74 151 4.3 10.4 0.00 0.00 0.00 82 1007.9
20260506091804 74 163 4.3 8.7 0.00 0.00 0.00 81 1007.7
20260506091305 74 158 2.6 5.2 0.00 0.00 0.00 81 1007.7
20260506090805 74 158 2.6 7.0 0.00 0.00 0.00 81 1007.6
20260506090304 74 157 4.3 10.4 0.00 0.00 0.00 81 1007.5
20260506084804 74 166 5.2 10.4 0.00 0.00 0.00 81 1007.3
20260506084305 74 164 3.5 10.4 0.00 0.00 0.00 81 1007.5
20260506083804 74 179 2.6 7.8 0.00 0.00 0.00 81 1007.5
20260506081804 75 160 4.3 8.7 0.00 0.00 0.00 80 1007.6
20260506081305 75 171 6.1 12.2 0.00 0.00 0.00 80 1007.6
20260506080805 75 180 4.3 11.3 0.00 0.00 0.00 80 1007.5
20260506080305 75 187 4.3 12.2 0.00 0.00 0.00 80 1007.6
20260506073304 75 170 5.2 14.8 0.00 0.00 0.00 80 1007.8
20260506071804 75 174 5.2 11.3 0.00 0.00 0.00 80 1007.9
20260506071304 75 157 7.8 12.2 0.00 0.00 0.00 80 1008.1
20260506070804 75 170 7.8 13.0 0.00 0.00 0.00 81 1008.1
20260506070305 75 165 5.2 15.6 0.00 0.00 0.00 81 1008.1
20260506061804 74 160 9.6 15.6 0.00 0.00 0.00 81 1007.8
20260506061304 74 177 7.8 13.0 0.00 0.00 0.00 81 1007.8
20260506060805 74 174 6.1 12.2 0.00 0.00 0.00 81 1007.9
20260506050805 75 165 6.1 14.8 0.00 0.00 0.00 81 1007.9
20260506050305 75 160 11.3 14.8 0.00 0.00 0.00 81 1007.8
20260506044804 75 166 10.4 18.2 0.00 0.00 0.00 81 1007.8
20260506043804 75 160 7.8 15.6 0.00 0.00 0.00 80 1007.8
20260506043305 75 165 8.7 13.9 0.00 0.00 0.00 80 1007.7
20260506041804 75 166 9.6 14.8 0.00 0.00 0.00 80 1007.7
20260506041304 75 157 8.7 13.0 0.00 0.00 0.00 80 1007.7
20260506040304 76 166 7.0 17.4 0.00 0.00 0.00 79 1007.7
20260506034805 76 160 9.6 14.8 0.00 0.00 0.00 79 1007.5
20260506034305 76 158 10.4 15.6 0.00 0.00 0.00 78 1007.3
20260506033804 76 157 8.7 13.0 0.00 0.00 0.00 78 1007.2
20260506033304 76 161 9.6 15.6 0.00 0.00 0.00 78 1007.1
20260506031304 77 161 10.4 14.8 0.00 0.00 0.00 77 1007.0
20260506030804 77 157 7.8 12.2 0.00 0.00 0.00 77 1007.0
20260506030304 77 156 8.7 13.0 0.00 0.00 0.00 76 1006.8
20260506024304 77 157 7.8 12.2 0.00 0.00 0.00 76 1006.6
20260506023804 77 154 7.8 13.0 0.00 0.00 0.00 75 1006.5
20260506023304 77 156 7.8 13.9 0.00 0.00 0.00 75 1006.3
20260506021804 77 158 7.8 11.3 0.00 0.00 0.00 75 1006.1
20260506021304 77 160 7.8 12.2 0.00 0.00 0.00 75 1006.1
20260506020304 78 154 6.1 11.3 0.00 0.00 0.00 74 1006.0
20260506014804 78 159 7.8 11.3 0.00 0.00 0.00 73 1005.7
20260506014304 78 156 7.8 11.3 0.00 0.00 0.00 73 1005.5
20260506013804 78 159 8.7 11.3 0.00 0.00 0.00 72 1005.5
20260506013304 79 160 7.8 12.2 0.00 0.00 0.00 72 1005.5
20260506011804 79 156 8.7 12.2 0.00 0.00 0.00 71 1005.5
20260506011304 79 159 7.8 12.2 0.00 0.00 0.00 71 1005.5
20260506010805 79 154 7.8 12.2 0.00 0.00 0.00 71 1005.4
20260506004805 81 160 7.0 11.3 0.00 0.00 0.00 69 1005.5
20260506004304 81 170 8.7 13.0 0.00 0.00 0.00 68 1005.5
20260506003805 81 161 6.1 10.4 0.00 0.00 0.00 68 1005.5
20260506001804 81 169 7.8 12.2 0.00 0.00 0.00 67 1005.5
20260506001304 82 168 5.2 8.7 0.00 0.00 0.00 67 1005.6
20260506000305 82 159 6.1 12.2 0.00 0.00 0.00 66 1005.5
20260505234304 82 169 7.0 13.9 0.00 0.00 0.00 65 1005.4
20260505233304 83 174 7.8 14.8 0.00 0.00 0.00 64 1005.3
20260505231804 83 168 8.7 14.8 0.00 0.00 0.00 64 1005.0
20260505231304 83 163 11.3 14.8 0.00 0.00 0.00 64 1005.1
20260505230804 83 166 10.4 17.4 0.00 0.00 0.00 64 1005.1
20260505230304 83 171 8.7 17.4 0.00 0.00 0.00 64 1005.0
20260505224805 83 170 6.1 13.0 0.00 0.00 0.00 63 1005.1
20260505224304 83 171 7.8 15.6 0.00 0.00 0.00 63 1005.1
20260505223804 84 167 7.8 13.0 0.00 0.00 0.00 63 1005.0
20260505223304 84 180 6.1 13.9 0.00 0.00 0.00 62 1005.1
20260505221805 84 162 10.4 18.2 0.00 0.00 0.00 62 1004.9
20260505221304 84 168 9.6 15.6 0.00 0.00 0.00 61 1004.9
20260505220804 84 164 8.7 15.6 0.00 0.00 0.00 61 1004.9
20260505220304 84 163 7.8 14.8 0.00 0.00 0.00 61 1005.1
20260505214804 85 184 5.2 11.3 0.00 0.00 0.00 59 1005.1
20260505214304 85 181 8.7 14.8 0.00 0.00 0.00 58 1005.2
20260505213804 85 163 8.7 14.8 0.00 0.00 0.00 59 1005.3
20260505213304 85 167 7.8 18.2 0.00 0.00 0.00 59 1005.4
20260505211804 86 184 5.2 12.2 0.00 0.00 0.00 60 1005.4
20260505211304 85 177 8.7 18.2 0.00 0.00 0.00 59 1005.5
20260505210304 85 174 9.6 20.0 0.00 0.00 0.00 60 1005.7
20260505204804 84 169 7.0 14.8 0.00 0.00 0.00 61 1005.7
20260505204304 85 173 8.7 15.6 0.00 0.00 0.00 60 1005.8
20260505203304 84 159 11.3 20.0 0.00 0.00 0.00 61 1005.8
20260505201804 84 184 8.7 15.6 0.00 0.00 0.00 61 1006.2
20260505201304 84 167 8.7 15.6 0.00 0.00 0.00 60 1006.3
20260505200804 85 187 7.8 13.9 0.00 0.00 0.00 61 1006.5
20260505200305 84 154 9.6 18.2 0.00 0.00 0.00 61 1006.5
20260505194804 84 175 7.8 14.8 0.00 0.00 0.00 62 1006.7
20260505194304 84 182 7.8 14.8 0.00 0.00 0.00 62 1006.7
20260505193805 84 171 7.8 13.0 0.00 0.00 0.00 61 1006.8
20260505193304 84 165 6.1 15.6 0.00 0.00 0.00 62 1007.0